STARLINK-1723 (46333 NORAD) Tracking and Keplerian Element Data

This shows tracking and keplerian element data for the satellite.

Feedback or suggestion? Click here.




ElementValue
Catalog46333
NameSTARLINK-1723
Epoch Orbit184
Epoch Day336.91667824
Epoch Year2020
RAAN12.7729
Inclination52.9986
Eccentricity0.0001582
Argument of Perigee69.3374
Mean Anonmoly234.9793
Mean Motion15.0556638
Decay Rate0.00029187
L11 46333U 20062J 20336.91667824 .00029187 00000-0 20148-2 0 9990
L22 46333 52.9986 12.7729 0001582 69.3374 234.9793 15.05566380 1845

Live tracking and technical data element details for STARLINK-1723 (NORAD 46333). STARLINK-1723 can be tracked NOW for your location showing map with azimuth and elevation plus other details from your city location.

Track the satellite on the map from your city or location and see movement details for azimuth, elevation, latitude, longitude, range, height, and movement on the map or in text.







IsCatalogInMostPopularTable: catalog: 46333, numindb: 32
Update: records affected: 1



GetName: 46333 STARLINK-1723

Hit Count: updated at: Wed, 02 Dec 2020 18:57:33 GMT